DF1NIF-13 Weather Reports


time (UTC)temp
C
wind
direction
speed
KPH
gust
KPH
rain 1hr
cm
rain 24hr
cm
rain mn
cm
humidity
%
barometer
mb
20260905123613 21 120 25.7 29.0 0.00 0.00 0.00 50 973.9
20260905123118 21 310 17.7 25.7 0.00 0.00 0.00 50 974.2
20260905122648 21 310 27.4 25.7 0.00 0.00 0.00 50 974.0
20260905122208 20 15 12.9 32.2 0.00 0.00 0.00 50 974.3
20260905121733 20 271 22.5 32.2 0.00 0.00 0.00 50 974.3
20260905121258 20 265 11.3 35.4 0.00 0.00 0.00 49 974.4
20260905120828 20 316 11.3 25.7 0.00 0.00 0.00 52 974.0
20260905120358 20 263 11.3 43.5 0.00 0.00 0.00 52 973.9
20260905115913 20 134 11.3 40.2 0.00 0.00 0.00 52 974.3
20260905115428 20 134 14.5 43.5 0.00 0.00 0.00 52 974.3
20260905114943 20 302 14.5 40.2 0.00 0.00 0.00 52 974.0
20260905114518 20 339 8.0 37.0 0.00 0.00 0.00 52 974.1
20260905114058 20 304 8.0 29.0 0.00 0.00 0.00 53 974.1
20260905113633 20 311 9.7 22.5 0.00 0.00 0.00 53 974.4
20260905113148 19 321 22.5 20.9 0.00 0.00 0.00 53 974.3
20260905112733 19 344 12.9 37.0 0.00 0.00 0.00 57 974.3
20260905112318 19 341 19.3 37.0 0.00 0.00 0.00 57 974.5
20260905111853 19 4 14.5 40.2 0.00 0.00 0.00 57 974.5
20260905111439 19 152 14.5 29.0 0.00 0.00 0.00 57 974.4
20260905110948 19 152 16.1 32.2 0.00 0.00 0.00 57 974.6
20260905110518 20 346 16.1 37.0 0.00 0.00 0.00 57 974.5
20260905110038 20 346 16.1 43.5 0.00 0.00 0.00 57 974.6
20260905105613 19 346 11.3 20.9 0.00 0.00 0.00 57 974.4
20260905105143 19 244 25.7 22.5 0.00 0.00 0.00 55 974.5
20260905104713 19 273 24.1 25.7 0.00 0.00 0.00 55 974.7
20260905104223 19 273 11.3 29.0 0.00 0.00 0.00 57 974.6
20260905103738 19 318 17.7 37.0 0.00 0.00 0.00 57 974.6
20260905103318 19 1 17.7 32.2 0.00 0.00 0.00 57 974.5
20260905102838 18 355 3.2 25.7 0.00 0.00 0.00 57 974.6
20260905102413 18 264 3.2 37.0 0.00 0.00 0.00 58 974.7
20260905101948 19 12 9.7 37.0 0.00 0.00 0.00 58 974.6
20260905101523 19 302 9.7 37.0 0.00 0.00 0.00 58 974.6
20260905101118 19 302 11.3 22.5 0.00 0.00 0.00 62 974.7
20260905100703 19 321 22.5 20.9 0.00 0.00 0.00 62 974.6
20260905100238 19 323 11.3 25.7 0.00 0.00 0.00 62 974.6
20260905095818 18 323 12.9 17.7 0.00 0.00 0.00 62 974.7
20260905095348 18 323 6.4 29.0 0.00 0.00 0.00 62 974.7
20260905094853 18 323 9.7 29.0 0.00 0.00 0.00 62 974.6
20260905094428 18 0 3.2 25.7 0.00 0.00 0.00 62 974.6
20260905093958 18 0 11.3 14.5 0.00 0.00 0.00 62 974.6
20260905093548 18 0 11.3 0.0 0.00 0.00 0.00 100 974.6
20260905093110 18 319 6.4 25.7 0.00 0.00 0.00 67 974.6
20260905092648 18 184 6.4 17.7 0.00 0.00 0.00 67 974.7
20260905092208 18 343 14.5 20.9 0.00 0.00 0.00 67 974.5
20260905091743 17 165 14.5 29.0 0.00 0.00 0.00 67 974.6
20260905091308 17 247 1.6 32.2 0.00 0.00 0.00 67 974.6
20260905090828 17 289 12.9 17.7 0.00 0.00 0.00 67 974.4
20260905090359 17 275 12.9 8.0 0.00 0.00 0.00 67 974.7
20260905085943 16 278 8.0 8.0 0.00 0.00 0.00 67 974.8
20260905085448 16 352 9.7 20.9 0.00 0.00 0.00 67 974.4
20260905085028 17 317 9.7 29.0 0.00 0.00 0.00 67 974.4
20260905084548 17 317 9.7 32.2 0.00 0.00 0.00 64 974.5
20260905084123 17 317 19.3 32.2 0.00 0.00 0.00 64 974.5
20260905083718 17 213 6.4 22.5 0.00 0.00 0.00 69 974.5
20260905083253 17 223 6.4 22.5 0.00 0.00 0.00 69 974.5
20260905082838 16 307 3.2 17.7 0.00 0.00 0.00 69 974.4
20260905082408 16 279 14.5 11.3 0.00 0.00 0.00 75 974.4
20260905081918 16 311 14.5 25.7 0.00 0.00 0.00 75 974.5
20260905081458 16 311 14.5 25.7 0.00 0.00 0.00 75 974.5
20260905081043 16 314 14.5 25.7 0.00 0.00 0.00 75 974.2
20260905080618 16 266 19.3 32.2 0.00 0.00 0.00 75 974.3
20260905080158 16 328 6.4 8.0 0.00 0.00 0.00 75 974.4
20260905075744 16 328 6.4 8.0 0.00 0.00 0.00 80 974.3
20260905075318 16 322 6.4 8.0 0.00 0.00 0.00 80 974.4
20260905074853 15 322 6.4 14.5 0.00 0.00 0.00 80 974.1
20260905074433 15 118 6.4 11.3 0.00 0.00 0.00 80 974.0
20260905074028 15 312 8.0 25.7 0.00 0.00 0.00 80 974.2
20260905073548 15 319 8.0 20.9 0.00 0.00 0.00 80 974.1
20260905073128 16 319 8.0 17.7 0.00 0.00 0.00 79 974.1
20260905072653 16 292 8.0 22.5 0.00 0.00 0.00 80 973.9
20260905072153 16 304 6.4 22.5 0.00 0.00 0.00 80 974.0
20260905071723 16 113 9.7 20.9 0.00 0.00 0.00 80 973.9
20260905071243 16 281 6.4 20.9 0.00 0.00 0.00 80 974.0
20260905070833 15 310 6.4 8.0 0.00 0.00 0.00 80 974.0
20260905070411 15 285 6.4 14.5 0.00 0.00 0.00 80 973.8
20260905070000 15 334 6.4 14.5 0.00 0.00 0.00 80 973.8
20260905065548 15 334 6.4 14.5 0.00 0.00 0.00 80 974.1
20260905065113 16 335 6.4 14.5 0.00 0.00 0.00 80 973.8
20260905064658 15 261 8.0 11.3 0.00 0.00 0.00 87 973.7
20260905064223 15 271 6.4 8.0 0.00 0.00 0.00 87 973.8
20260905063803 15 71 1.6 11.3 0.00 0.00 0.00 87 973.6
20260905063328 14 327 4.8 8.0 0.00 0.00 0.00 87 973.7
20260905062833 14 322 4.8 8.0 0.00 0.00 0.00 87 973.7
20260905062358 14 111 4.8 4.8 0.00 0.00 0.00 87 973.7
20260905061903 14 149 1.6 11.3 0.00 0.00 0.00 87 973.6
20260905061458 14 1 1.6 1.6 0.00 0.00 0.00 87 973.5
20260905061028 13 1 8.0 14.5 0.00 0.00 0.00 87 973.3
20260905060553 14 1 1.6 14.5 0.00 0.00 0.00 87 973.4
20260905060138 14 228 1.6 8.0 0.00 0.00 0.00 83 973.1
20260905055639 13 228 1.6 8.0 0.00 0.00 0.00 83 973.2
20260905055148 13 228 3.2 8.0 0.00 0.00 0.00 83 973.3
20260905054713 13 228 1.6 8.0 0.00 0.00 0.00 83 973.0
20260905054253 13 258 1.6 11.3 0.00 0.00 0.00 83 973.1
20260905053810 13 182 1.6 11.3 0.00 0.00 0.00 83 973.2
20260905053339 13 182 1.6 11.3 0.00 0.00 0.00 83 973.1
20260905052843 13 182 4.8 4.8 0.00 0.00 0.00 83 973.2
20260905052351 13 182 4.8 11.3 0.00 0.00 0.00 83 973.0
20260905051918 13 182 1.6 8.0 0.00 0.00 0.00 83 973.0
20260905051423 13 336 1.6 11.3 0.00 0.00 0.00 83 973.1
20260905050958 13 336 1.6 11.3 0.00 0.00 0.00 83 973.0
20260905050523 13 336 0.0 11.3 0.00 0.00 0.00 83 972.9
20260905050053 13 351 1.6 1.6 0.00 0.00 0.00 83 972.6
20260905045623 13 351 0.0 1.6 0.00 0.00 0.00 83 972.8
20260905045158 13 188 0.0 1.6 0.00 0.00 0.00 83 972.5
20260905044738 13 188 0.0 1.6 0.00 0.00 0.00 83 972.5
20260905044253 13 188 1.6 4.8 0.00 0.00 0.00 83 972.4
20260905043803 13 188 1.6 4.8 0.00 0.00 0.00 83 972.3
20260905043333 13 188 0.0 1.6 0.00 0.00 0.00 86 972.4
20260905042908 13 188 0.0 1.6 0.00 0.00 0.00 86 972.3
20260905042443 13 188 0.0 1.6 0.00 0.00 0.00 86 972.2
20260905042018 13 188 1.6 1.6 0.00 0.00 0.00 86 972.1
20260905041533 12 188 0.0 1.6 0.00 0.00 0.00 86 972.1
20260905041128 12 188 0.0 1.6 0.00 0.00 0.00 86 972.1
20260905040643 12 188 0.0 4.8 0.00 0.00 0.00 85 972.1
20260905040153 12 188 3.2 0.0 0.00 0.00 0.00 85 971.9
20260905035743 12 188 3.2 0.0 0.00 0.00 0.00 85 971.8
20260905035313 12 217 1.6 0.0 0.00 0.00 0.00 85 971.8
20260905034843 12 217 1.6 1.6 0.00 0.00 0.00 85 971.9
20260905034418 12 217 0.0 1.6 0.00 0.00 0.00 84 971.9
20260905033938 12 236 4.8 4.8 0.00 0.00 0.00 84 971.7
20260905033513 12 236 1.6 4.8 0.00 0.00 0.00 84 972.0
20260905033033 12 105 0.0 4.8 0.00 0.00 0.00 84 971.8
20260905032558 12 105 1.6 4.8 0.00 0.00 0.00 84 971.7
20260905032113 12 151 4.8 4.8 0.00 0.00 0.00 84 971.9
20260905031638 12 151 0.0 0.0 0.00 0.00 0.00 72 971.7
20260905031208 12 153 0.0 0.0 0.00 0.00 0.00 72 972.0
20260905030808 12 335 0.0 1.6 0.00 0.00 0.00 72 972.0
20260905030323 12 335 0.0 8.0 0.00 0.00 0.00 72 971.9
20260905025908 12 152 3.2 8.0 0.00 0.00 0.00 72 972.0
20260905025433 12 152 4.8 11.3 0.00 0.00 0.00 72 971.8
20260905024958 12 152 0.0 0.0 0.00 0.00 0.00 72 971.7
20260905024518 13 152 0.0 1.6 0.00 0.00 0.00 72 971.4
20260905024039 13 230 1.6 1.6 0.00 0.00 0.00 72 971.6
20260905023608 13 186 1.6 1.6 0.00 0.00 0.00 72 971.5
20260905023133 13 170 1.6 1.6 0.00 0.00 0.00 72 971.5
20260905022708 13 170 0.0 1.6 0.00 0.00 0.00 72 971.6
20260905022306 13 170 0.0 1.6 0.00 0.00 0.00 72 971.6
20260905021838 13 358 0.0 1.6 0.00 0.00 0.00 72 971.7
20260905021408 13 358 3.2 1.6 0.00 0.00 0.00 72 972.0
20260905020948 13 358 1.6 4.8 0.00 0.00 0.00 72 972.1
20260905020458 13 358 1.6 1.6 0.00 0.00 0.00 72 971.6
20260905020013 15 358 1.6 11.3 0.00 0.00 0.00 72 971.6
20260905015533 15 349 0.0 11.3 0.00 0.00 0.00 63 971.6
20260905015100 15 327 9.7 11.3 0.00 0.00 0.00 63 971.7
20260905014638 15 7 8.0 20.9 0.00 0.00 0.00 66 971.5
20260905014223 15 345 3.2 22.5 0.00 0.00 0.00 66 971.5
20260905013753 16 271 3.2 8.0 0.00 0.00 0.00 66 971.4
20260905013328 16 271 1.6 1.6 0.00 0.00 0.00 66 971.5
20260905012848 16 271 3.2 8.0 0.00 0.00 0.00 66 971.6
20260905012418 16 271 6.4 8.0 0.00 0.00 0.00 66 971.5
20260905012013 16 271 6.4 4.8 0.00 0.00 0.00 66 971.5
20260905011523 16 271 0.0 1.6 0.00 0.00 0.00 66 970.9
20260905011043 16 271 0.0 1.6 0.00 0.00 0.00 66 971.0
20260905010623 16 271 0.0 4.8 0.00 0.00 0.00 66 970.7
20260905010138 16 271 0.0 1.6 0.00 0.00 0.00 66 970.8
20260905005713 16 271 0.0 1.6 0.00 0.00 0.00 65 970.7
20260905005253 16 271 0.0 1.6 0.00 0.00 0.00 65 970.7
20260905004838 16 271 0.0 4.8 0.00 0.00 0.00 65 970.5
20260905004428 16 271 0.0 1.6 0.00 0.00 0.00 65 970.7
20260905004013 16 262 0.0 1.6 0.00 0.00 0.00 66 970.5
20260905003548 16 262 1.6 4.8 0.00 0.00 0.00 66 970.6
20260905003123 16 262 0.0 0.0 0.00 0.00 0.00 66 970.3
20260905002659 16 262 1.6 4.8 0.00 0.00 0.00 66 970.4
20260905002258 16 262 0.0 4.8 0.00 0.00 0.00 66 970.3
20260905001843 16 237 0.0 4.8 0.00 0.00 0.00 66 970.0
20260905001402 16 215 0.0 4.8 0.00 0.00 0.00 66 970.3
20260905000933 16 216 1.6 4.8 0.00 0.00 0.00 66 970.2
20260905000458 16 216 1.6 4.8 0.00 0.00 0.00 66 970.4
20260905000023 16 345 1.6 1.6 0.00 0.00 0.00 66 970.3
20260904235551 16 345 0.0 8.0 0.00 0.00 0.00 66 970.3
20260904235128 16 345 6.4 11.3 0.00 0.00 0.00 71 970.4
20260904234708 17 353 16.1 17.7 0.00 0.00 0.00 71 970.3
20260904234233 18 329 11.3 11.3 0.00 0.00 0.00 71 970.2
20260904233819 18 348 4.8 8.0 0.00 0.00 0.00 71 969.9
20260904233408 18 352 11.3 22.5 0.00 0.00 0.00 71 969.9
20260904232938 18 352 12.9 17.7 0.00 0.00 0.00 71 970.2
20260904232459 18 0 12.9 32.2 0.00 0.00 0.00 71 970.1
20260904232033 18 0 12.9 22.5 0.00 0.00 0.00 71 970.2
20260904231613 18 0 16.1 14.5 0.00 0.00 0.00 71 969.9
20260904231143 18 346 16.1 14.5 0.00 0.00 0.00 71 970.0
20260904230708 18 310 16.1 14.5 0.00 0.00 0.00 71 969.6
20260904230233 18 310 16.1 25.7 0.00 0.00 0.00 69 969.9
20260904225753 18 310 16.1 40.2 0.00 0.00 0.00 69 970.1
20260904225333 18 310 9.7 40.2 0.00 0.00 0.00 69 970.0
20260904224853 18 359 11.3 29.0 0.00 0.00 0.00 69 969.9
20260904224433 18 359 17.7 29.0 0.00 0.00 0.00 70 969.8
20260904223953 18 327 14.5 35.4 0.00 0.00 0.00 64 969.5
20260904223503 19 338 14.5 22.5 0.00 0.00 0.00 64 969.7
20260904223028 19 338 24.1 78.9 0.00 0.00 0.00 64 969.9
20260904222603 19 338 20.9 35.4 0.00 0.00 0.00 64 969.7
20260904222123 19 338 20.9 22.5 0.00 0.00 0.00 64 969.6
20260904221648 21 330 16.1 29.0 0.00 0.00 0.00 64 969.6
20260904221218 21 0 16.1 46.7 0.00 0.00 0.00 64 969.4
20260904220758 21 0 43.5 78.9 0.00 0.00 0.00 64 968.8
20260904220353 21 359 30.6 57.9 0.00 0.00 0.00 64 968.8
20260904215938 21 343 16.1 43.5 0.00 0.00 0.00 64 968.7
20260904215504 21 312 16.1 40.2 0.00 0.00 0.00 64 968.6
20260904215103 24 354 16.1 57.9 0.00 0.00 0.00 59 968.0
20260904214603 24 319 16.1 49.9 0.00 0.00 0.00 56 968.0
20260904214113 24 319 16.1 40.2 0.00 0.00 0.00 56 967.2
20260904213634 24 319 16.1 37.0 0.00 0.00 0.00 56 967.2
20260904213158 24 319 11.3 35.4 0.00 0.00 0.00 56 967.0
20260904212729 24 306 19.3 29.0 0.00 0.00 0.00 56 967.1
20260904212243 24 306 19.3 37.0 0.00 0.00 0.00 56 966.9
20260904211818 24 341 17.7 32.2 0.00 0.00 0.00 56 967.0
20260904211348 23 341 17.7 32.2 0.00 0.00 0.00 56 967.0
20260904210918 23 341 11.3 29.0 0.00 0.00 0.00 56 966.7
20260904210443 23 341 24.1 32.2 0.00 0.00 0.00 56 966.7
20260904205953 23 341 4.8 20.9 0.00 0.00 0.00 56 967.1
20260904205518 23 341 4.8 17.7 0.00 0.00 0.00 56 967.1
20260904205048 23 341 9.7 14.5 0.00 0.00 0.00 56 966.7
20260904204608 23 300 8.0 14.5 0.00 0.00 0.00 56 966.9
20260904204148 23 253 6.4 8.0 0.00 0.00 0.00 56 966.6
20260904203708 23 253 6.4 17.7 0.00 0.00 0.00 56 966.9
20260904203248 23 130 9.7 17.7 0.00 0.00 0.00 56 966.8
20260904202838 23 270 0.0 17.7 0.00 0.00 0.00 56 966.8
20260904202403 23 270 3.2 8.0 0.00 0.00 0.00 56 966.9
20260904201943 23 339 1.6 8.0 0.00 0.00 0.00 56 966.6
20260904201518 23 339 1.6 8.0 0.00 0.00 0.00 56 966.5
20260904201049 23 339 4.8 4.8 0.00 0.00 0.00 56 966.6
20260904200638 23 339 4.8 8.0 0.00 0.00 0.00 56 966.7
20260904200203 23 339 4.8 17.7 0.00 0.00 0.00 56 966.5
20260904195738 23 339 4.8 11.3 0.00 0.00 0.00 56 966.7
20260904195328 23 339 4.8 14.5 0.00 0.00 0.00 56 966.5
20260904194853 23 339 8.0 11.3 0.00 0.00 0.00 56 966.3
20260904194418 23 339 8.0 4.8 0.00 0.00 0.00 56 966.6
20260904193953 23 339 8.0 8.0 0.00 0.00 0.00 56 966.5
20260904193518 23 339 8.0 11.3 0.00 0.00 0.00 56 966.3
20260904193058 23 251 1.6 11.3 0.00 0.00 0.00 52 966.4
20260904192612 23 133 3.2 11.3 0.00 0.00 0.00 52 966.5
20260904192119 23 133 0.0 4.8 0.00 0.00 0.00 52 966.2
20260904191643 23 133 8.0 4.8 0.00 0.00 0.00 52 966.5
20260904191218 23 133 3.2 4.8 0.00 0.00 0.00 52 966.3
20260904190727 23 133 3.2 0.0 0.00 0.00 0.00 52 966.3
20260904190253 23 133 3.2 1.6 0.00 0.00 0.00 52 966.3
20260904185843 23 24 3.2 1.6 0.00 0.00 0.00 52 966.3
20260904185423 23 24 3.2 4.8 0.00 0.00 0.00 52 966.3
20260904184938 23 24 0.0 0.0 0.00 0.00 0.00 52 966.2
20260904184458 23 24 0.0 1.6 0.00 0.00 0.00 52 966.3
20260904184039 25 24 1.6 1.6 0.00 0.00 0.00 52 966.4
20260904183558 25 0 0.0 0.0 0.00 0.00 0.00 52 966.1
20260904183123 25 0 4.8 0.0 0.00 0.00 0.00 52 966.2
20260904182708 25 251 3.2 4.8 0.00 0.00 0.00 52 966.0
20260904182213 25 259 0.0 4.8 0.00 0.00 0.00 52 966.2
20260904181748 25 259 1.6 8.0 0.00 0.00 0.00 52 965.9
20260904181313 25 259 3.2 4.8 0.00 0.00 0.00 52 966.0
20260904180843 25 259 3.2 4.8 0.00 0.00 0.00 52 965.8
20260904180413 25 259 3.2 14.5 0.00 0.00 0.00 52 965.9
20260904175943 25 259 0.0 4.8 0.00 0.00 0.00 52 966.0
20260904175502 26 290 1.6 1.6 0.00 0.00 0.00 52 965.8
20260904175038 26 290 1.6 4.8 0.00 0.00 0.00 49 965.8
20260904174558 26 290 6.4 11.3 0.00 0.00 0.00 49 965.8
20260904174118 26 290 8.0 11.3 0.00 0.00 0.00 49 965.6
20260904173653 26 290 0.0 11.3 0.00 0.00 0.00 49 965.9
20260904173233 26 290 0.0 8.0 0.00 0.00 0.00 49 965.8
20260904172813 26 166 8.0 20.9 0.00 0.00 0.00 49 966.0
20260904172333 26 166 6.4 20.9 0.00 0.00 0.00 49 965.9
20260904171908 26 166 6.4 14.5 0.00 0.00 0.00 49 965.8
20260904171443 26 253 4.8 17.7 0.00 0.00 0.00 45 966.0
20260904171028 26 253 4.8 17.7 0.00 0.00 0.00 45 966.1
20260904170553 26 274 4.8 29.0 0.00 0.00 0.00 45 965.9
20260904170108 26 337 11.3 11.3 0.00 0.00 0.00 45 966.1
20260904165639 26 334 1.6 11.3 0.00 0.00 0.00 45 966.2
20260904165158 26 257 3.2 14.5 0.00 0.00 0.00 45 966.0
20260904164723 26 257 11.3 14.5 0.00 0.00 0.00 45 966.1
20260904164253 26 301 11.3 11.3 0.00 0.00 0.00 45 966.4
20260904163809 26 301 8.0 22.5 0.00 0.00 0.00 45 966.3
20260904163327 26 301 8.0 14.5 0.00 0.00 0.00 45 966.2
20260904162838 26 301 3.2 22.5 0.00 0.00 0.00 45 966.2
20260904162353 26 301 3.2 22.5 0.00 0.00 0.00 45 966.3
20260904161928 27 292 3.2 32.2 0.00 0.00 0.00 45 966.4
20260904161453 27 333 3.2 22.5 0.00 0.00 0.00 45 965.9
20260904161038 27 333 6.4 22.5 0.00 0.00 0.00 45 966.3
20260904160543 27 137 6.4 14.5 0.00 0.00 0.00 45 966.1
20260904160113 27 117 6.4 25.7 0.00 0.00 0.00 45 966.1
20260904155633 27 117 29.0 40.2 0.00 0.00 0.00 45 966.1
20260904155158 27 316 12.9 20.9 0.00 0.00 0.00 45 966.1
20260904154711 27 350 9.7 14.5 0.00 0.00 0.00 43 966.1
20260904154228 27 292 9.7 35.4 0.00 0.00 0.00 43 965.9
20260904153813 27 281 6.4 22.5 0.00 0.00 0.00 43 966.0
20260904153323 27 281 20.9 35.4 0.00 0.00 0.00 44 965.9
20260904152824 27 84 12.9 35.4 0.00 0.00 0.00 44 966.0
20260904152418 27 84 19.3 17.7 0.00 0.00 0.00 44 966.1
20260904151953 27 7 17.7 20.9 0.00 0.00 0.00 44 965.8
20260904151513 27 337 11.3 40.2 0.00 0.00 0.00 44 965.7
20260904151103 27 161 17.7 25.7 0.00 0.00 0.00 44 966.1
20260904150633 27 351 11.3 25.7 0.00 0.00 0.00 44 966.0
20260904150218 28 241 12.9 20.9 0.00 0.00 0.00 44 966.0
20260904145738 27 241 11.3 14.5 0.00 0.00 0.00 44 966.1
20260904145309 27 2 11.3 43.5 0.00 0.00 0.00 44 965.9
20260904144843 27 186 4.8 17.7 0.00 0.00 0.00 44 966.0
20260904144411 27 103 12.9 32.2 0.00 0.00 0.00 44 966.2
20260904143928 27 56 22.5 11.3 0.00 0.00 0.00 44 966.2
20260904143448 27 314 14.5 11.3 0.00 0.00 0.00 44 966.2
20260904142958 27 326 8.0 11.3 0.00 0.00 0.00 44 966.3
20260904142528 27 326 6.4 40.2 0.00 0.00 0.00 44 966.5
20260904142113 27 313 8.0 35.4 0.00 0.00 0.00 44 966.5
20260904141648 27 139 8.0 40.2 0.00 0.00 0.00 44 966.5
20260904141208 27 139 1.6 22.5 0.00 0.00 0.00 45 966.6
20260904140738 27 304 25.7 14.5 0.00 0.00 0.00 49 966.7
20260904140313 27 182 25.7 25.7 0.00 0.00 0.00 49 966.7
20260904135828 27 302 25.7 25.7 0.00 0.00 0.00 49 966.9
20260904135353 27 68 6.4 14.5 0.00 0.00 0.00 49 967.0
20260904134933 27 187 1.6 14.5 0.00 0.00 0.00 49 966.9
20260904134508 26 238 9.7 53.1 0.00 0.00 0.00 49 966.9
20260904134108 26 238 16.1 53.1 0.00 0.00 0.00 49 967.2
20260904133623 26 175 16.1 29.0 0.00 0.00 0.00 49 967.1
20260904133203 26 305 8.0 29.0 0.00 0.00 0.00 47 967.0
20260904132733 26 105 11.3 29.0 0.00 0.00 0.00 47 967.1
20260904132258 27 340 8.0 25.7 0.00 0.00 0.00 48 967.1
20260904131759 27 182 11.3 22.5 0.00 0.00 0.00 47 967.2
20260904131333 26 332 11.3 32.2 0.00 0.00 0.00 47 967.2
20260904130853 26 303 6.4 32.2 0.00 0.00 0.00 47 967.1
20260904130443 26 231 8.0 22.5 0.00 0.00 0.00 47 967.2
20260904130028 26 234 14.5 40.2 0.00 0.00 0.00 48 967.4
20260904125608 26 291 22.5 25.7 0.00 0.00 0.00 49 967.4
20260904125133 26 344 22.5 43.5 0.00 0.00 0.00 50 967.5
20260904124639 26 308 22.5 35.4 0.00 0.00 0.00 50 967.7
20260904124218 26 319 11.3 22.5 0.00 0.00 0.00 50 967.6